Weather History for PAHN - September, 2014

Change the Weather History Date:

Monday, September 15, 2014

  Actual Average Record
Temperature  
Mean Temperature 50 °F -  
Max Temperature 54 °F 52 °F 73 °F (2010)
Min Temperature 48 °F 44 °F 31 °F (1992)
Degree Days  
Heating Degree Days 14    
Moisture  
Dew Point 49 °F    
Average Humidity 97    
Maximum Humidity 100    
Minimum Humidity 93    
Precipitation  
Precipitation 0.09 in - - ()
Sea Level Pressure  
Sea Level Pressure 29.90 in    
Wind  
Wind Speed 2 mph (ESE)    
Max Wind Speed 8 mph    
Max Gust Speed -    
Visibility 5 miles    
Events Fog , Rain    
Averages and records for this station are not official NWS values.
T = Trace of Precipitation, MM = Missing Value Source: NWS Daily Summary

Daily Weather History Graph

Daily Weather History Graph

Search for Another Location

Airport or City:

Trip Planner

Search our weather history database for the weather conditions in past years. The results will help you decide how hot, cold, wet, or windy it might be!

Date:

Astronomy

Sep. 15, 2014 Rise Set
Actual Time 6:31 AM AKDT 7:21 PM AKDT
Civil Twilight 5:49 AM AKDT 8:02 PM AKDT
Nautical Twilight 4:59 AM AKDT 8:53 PM AKDT
Astronomical Twilight 4:02 AM AKDT 9:49 PM AKDT
Moon 10:45 PM AKDT (9/15) 3:03 PM AKDT (9/15)
Length of Visible Light 14h 13m
Length of Day
12h 50m
Waning Gibbous, 53% of the Moon is Illuminated
Sep 15
Waning Gibbous
Sep 15
Last Quarter
Sep 23
New
Oct 1
First Quarter
Oct 8
Full

Hourly Weather History & Observations

Time (AKDT) Temp. Dew Point Humidity Pressure Visibility Wind Dir Wind Speed Gust Speed Precip Events Conditions
12:20 AM 48.9 °F 48.0 °F 97% 29.93 in 9.0 mi Calm Calm - N/A   Overcast
12:31 AM 48.9 °F 48.0 °F 97% 29.92 in 1.8 mi West 3.5 mph - N/A   Overcast
12:39 AM 48.0 °F 46.9 °F 96% 29.92 in 0.2 mi WNW 3.5 mph - N/A Fog Fog
12:54 AM 48.0 °F 46.9 °F 96% 29.93 in 0.5 mi Calm Calm - N/A Fog Fog
1:12 AM 48.0 °F 48.0 °F 100% 29.92 in 1.8 mi Calm Calm - N/A   Overcast
1:20 AM 48.9 °F 48.0 °F 97% 29.92 in 2.5 mi Calm Calm - N/A   Overcast
1:28 AM 48.9 °F 48.0 °F 97% 29.92 in 3.0 mi Calm Calm - N/A   Overcast
1:32 AM 48.9 °F 48.0 °F 97% 29.92 in 1.8 mi Calm Calm - N/A   Overcast
1:44 AM 48.9 °F 48.9 °F 100% 29.92 in 0.8 mi Calm Calm - N/A   Mist
1:54 AM 48.9 °F 48.9 °F 100% 29.93 in 0.2 mi Calm Calm - N/A Fog Fog
2:14 AM 50.0 °F 48.9 °F 96% 29.92 in 0.8 mi Calm Calm - N/A   Mist
2:54 AM 48.9 °F 48.9 °F 100% 29.93 in 0.2 mi Calm Calm - N/A Fog Fog
3:54 AM 48.0 °F 48.0 °F 100% 29.92 in 0.2 mi Calm Calm - N/A Fog Fog
4:12 AM 48.0 °F 48.0 °F 100% 29.91 in 0.5 mi Calm Calm - N/A Fog Fog
4:38 AM 48.0 °F 48.0 °F 100% 29.90 in 2.0 mi Calm Calm - N/A   Overcast
4:46 AM 48.0 °F 48.0 °F 100% 29.90 in 8.0 mi Calm Calm - N/A   Overcast
4:54 AM 48.0 °F 48.0 °F 100% 29.90 in 5.0 mi Calm Calm - N/A   Overcast
4:59 AM 48.0 °F 46.9 °F 96% 29.89 in 1.8 mi SE 3.5 mph - N/A   Overcast
5:09 AM 48.0 °F 46.9 °F 96% 29.90 in 0.5 mi Calm Calm - N/A Fog Fog
5:22 AM 48.0 °F 48.0 °F 100% 29.89 in 0.2 mi Calm Calm - N/A Fog Fog
5:45 AM 48.0 °F 48.0 °F 100% 29.90 in 1.0 mi East 4.6 mph - N/A   Mist
5:49 AM 48.2 °F 48.2 °F 100% 29.90 in 3.0 mi East 3.5 mph - N/A   Overcast
5:54 AM 48.0 °F 48.0 °F 100% 29.91 in 9.0 mi Calm Calm - N/A   Overcast
6:05 AM 48.9 °F 48.0 °F 97% 29.91 in 1.8 mi West 3.5 mph - N/A   Overcast
6:17 AM 48.9 °F 48.0 °F 97% 29.91 in 0.8 mi Calm Calm - N/A   Overcast
6:32 AM 48.9 °F 48.0 °F 97% 29.91 in 2.0 mi Calm Calm - N/A   Overcast
6:44 AM 48.9 °F 48.0 °F 97% 29.91 in 8.0 mi Calm Calm - N/A   Overcast
6:54 AM 48.9 °F 48.0 °F 97% 29.92 in 9.0 mi Calm Calm - N/A   Overcast
7:37 AM 48.9 °F 48.0 °F 97% 29.91 in 1.8 mi Calm Calm - N/A   Overcast
7:54 AM 48.9 °F 48.0 °F 97% 29.91 in 2.0 mi Calm Calm - N/A   Overcast
8:03 AM 48.9 °F 48.0 °F 97% 29.91 in 4.0 mi Calm Calm - N/A   Overcast
8:54 AM 48.9 °F 48.0 °F 97% 29.92 in 10.0 mi East 4.6 mph - N/A   Overcast
9:37 AM 50.0 °F 48.9 °F 96% 29.91 in 10.0 mi East 4.6 mph - N/A   Overcast
9:54 AM 50.0 °F 48.9 °F 96% 29.92 in 9.0 mi East 4.6 mph - N/A   Overcast
10:31 AM 50.0 °F 48.9 °F 96% 29.92 in 5.0 mi ESE 3.5 mph - N/A   Overcast
10:54 AM 51.1 °F 50.0 °F 96% 29.92 in 4.0 mi SE 5.8 mph - N/A   Overcast
11:05 AM 51.1 °F 50.0 °F 96% 29.91 in 2.5 mi ESE 4.6 mph - N/A   Overcast
11:13 AM 51.1 °F 50.0 °F 96% 29.91 in 5.0 mi ESE 4.6 mph - N/A   Overcast
11:23 AM 51.1 °F 50.0 °F 96% 29.91 in 8.0 mi ESE 3.5 mph - N/A   Overcast
11:45 AM 51.1 °F 50.0 °F 96% 29.92 in 10.0 mi Calm Calm - N/A   Overcast
11:54 AM 51.1 °F 50.0 °F 96% 29.93 in 10.0 mi Calm Calm - N/A   Overcast
12:54 PM 50.0 °F 48.9 °F 96% 29.93 in 5.0 mi SE 3.5 mph - N/A   Overcast
1:54 PM 52.0 °F 51.1 °F 97% 29.91 in 9.0 mi ESE 6.9 mph - N/A   Overcast
2:06 PM 52.0 °F 51.1 °F 97% 29.91 in 10.0 mi SE 5.8 mph - N/A   Overcast
2:28 PM 51.1 °F 50.0 °F 96% 29.91 in 7.0 mi SSE 3.5 mph - 0.00 in   Overcast
2:54 PM 53.1 °F 51.1 °F 93% 29.91 in 10.0 mi East 5.8 mph - 0.00 in Rain Light Rain
3:16 PM 53.1 °F 51.1 °F 93% 29.90 in 10.0 mi ESE 8.1 mph - 0.00 in   Overcast
3:50 PM 53.6 °F 51.8 °F 94% 29.89 in 10.0 mi ESE 5.8 mph - 0.00 in   Overcast
3:54 PM 53.1 °F 51.1 °F 93% 29.91 in 10.0 mi ESE 5.8 mph - 0.00 in   Overcast
4:54 PM 53.1 °F 51.1 °F 93% 29.90 in 8.0 mi ESE 5.8 mph - 0.00 in Rain Light Rain
5:54 PM 52.0 °F 51.1 °F 97% 29.89 in 5.0 mi SE 3.5 mph - 0.04 in Rain Light Rain
6:17 PM 52.0 °F 51.1 °F 97% 29.88 in 4.0 mi East 3.5 mph - 0.01 in Rain Light Rain
6:54 PM 52.0 °F 51.1 °F 97% 29.89 in 6.0 mi East 3.5 mph - 0.01 in Rain Light Rain
7:37 PM 52.0 °F 51.1 °F 97% 29.87 in 6.0 mi East 5.8 mph - 0.01 in Rain Light Rain
7:54 PM 51.1 °F 51.1 °F 100% 29.88 in 10.0 mi ESE 4.6 mph - 0.01 in   Overcast
8:02 PM 52.0 °F 51.1 °F 97% 29.87 in 10.0 mi SE 4.6 mph - N/A   Overcast
8:11 PM 52.0 °F 51.1 °F 97% 29.87 in 10.0 mi Calm Calm - 0.00 in Rain Light Rain
8:36 PM 52.0 °F 51.1 °F 97% 29.87 in 8.0 mi Calm Calm - 0.01 in Rain Light Rain
8:52 PM 51.8 °F 50.0 °F 94% 29.87 in 10.0 mi Calm Calm - 0.01 in Rain Light Rain
8:54 PM 51.1 °F 50.0 °F 96% 29.88 in 9.0 mi Calm Calm - 0.01 in Rain Light Rain
9:21 PM 51.1 °F 50.0 °F 96% 29.88 in 3.0 mi WNW 4.6 mph - 0.00 in Rain Light Rain
9:35 PM 51.1 °F 50.0 °F 96% 29.87 in 10.0 mi WNW 5.8 mph - 0.01 in   Overcast
9:42 PM 52.0 °F 51.1 °F 97% 29.87 in 8.0 mi Calm Calm - 0.01 in Rain Light Rain
9:54 PM 52.0 °F 51.1 °F 97% 29.88 in 9.0 mi Calm Calm - 0.01 in   Overcast
10:18 PM 51.1 °F 51.1 °F 100% 29.87 in 6.0 mi Calm Calm - N/A   Overcast
10:40 PM 51.1 °F 50.0 °F 96% 29.87 in 4.0 mi Calm Calm - N/A   Overcast
10:49 PM 51.8 °F 50.0 °F 94% 29.87 in 5.0 mi Calm Calm - 0.00 in Rain Light Rain
10:54 PM 51.1 °F 51.1 °F 100% 29.88 in 5.0 mi Calm Calm - 0.00 in Rain Light Rain
11:35 PM 52.0 °F 51.1 °F 97% 29.87 in 6.0 mi Calm Calm - 0.01 in Rain Light Rain
11:52 PM 51.8 °F 51.8 °F 100% 29.87 in 6.0 mi Calm Calm - 0.01 in Rain Light Rain
11:54 PM 52.0 °F 51.1 °F 97% 29.88 in 6.0 mi Calm Calm - 0.01 in Rain Light Rain